Lincoln, NE

4:54 PM CST on February 13, 2016 (GMT -0600)
Lincoln Municipal

Weather History for KLNK - January, 1998

Change the Weather History Date:

Friday, January 9, 1998

  Actual Average Record
Temperature  
Mean Temperature 16 °F 24 °F  
Max Temperature 26 °F 35 °F 62 °F (1928)
Min Temperature 6 °F 14 °F -21 °F (1974)
Degree Days  
Heating Degree Days 49 41  
Month to date heating degree days 366  
Since 1 July heating degree days 2811  
Cooling Degree Days 0 0  
Month to date cooling degree days 0  
Year to date cooling degree days 0  
Moisture  
Dew Point 11 °F    
Average Humidity 80    
Maximum Humidity 100    
Minimum Humidity 54    
Precipitation  
Precipitation 0.00 in 0.02 in 0.37 in (1929)
Month to date precipitation 0.18  
Year to date precipitation 0.18  
Snow  
Snow 0.00 in 0.10 in - ()
Month to date snowfall 1.4  
Since 1 July snowfall 10.1  
Snow Depth 1.00 in    
Sea Level Pressure  
Sea Level Pressure 30.01 in    
Wind  
Wind Speed 13 mph (NW)    
Max Wind Speed 23 mph    
Max Gust Speed 30 mph    
Visibility 6 miles    
Events Snow    
T = Trace of Precipitation, MM = Missing Value Source: NWS Daily Summary

Daily Weather History Graph

Daily Weather History Graph

Search for Another Location

Airport or City:

Trip Planner

Search our weather history database for the weather conditions in past years. The results will help you decide how hot, cold, wet, or windy it might be!

Date:

Astronomy

Jan. 09, 1998 Rise Set
Actual Time 7:51 AM CST 5:17 PM CST
Civil Twilight 7:20 AM CST 5:48 PM CST
Nautical Twilight 6:46 AM CST 6:22 PM CST
Astronomical Twilight 6:13 AM CST 6:55 PM CST
Moon 3:03 PM CST (1/9) 4:42 AM CST (1/9)
Length of Visible Light 10h 27m
Length of Day
9h 26m
Waxing Gibbous, 90% of the Moon is Illuminated
Jan 9
Waxing Gibbous
Jan 12
Full
Jan 20
Last Quarter
Jan 28
New
Feb 3
First Quarter

Hourly Weather History & Observations

Time (CST) Temp. Windchill Dew Point Humidity Pressure Visibility Wind Dir Wind Speed Gust Speed Precip Events Conditions
12:54 AM 24.1 °F 17.0 °F 23.0 °F 96% 29.83 in 5.0 mi WNW 5.8 mph - N/A   Overcast
1:14 AM 24.8 °F 17.9 °F 24.8 °F 100% 29.79 in 5.0 mi WNW 5.8 mph - 0.00 in Snow Light Snow
1:54 AM 26.1 °F 17.6 °F 24.1 °F 92% 29.83 in 7.0 mi NW 8.1 mph - 0.00 in   Overcast
2:03 AM 26.6 °F 16.8 °F 24.8 °F 93% 29.79 in 8.0 mi NNW 10.4 mph - N/A   Overcast
2:54 AM 26.1 °F 13.6 °F 19.9 °F 78% 29.86 in 10.0 mi NW 16.1 mph - N/A   Overcast
3:43 AM 24.8 °F 12.9 °F 21.2 °F 86% 29.82 in 8.0 mi NNW 13.8 mph - N/A   Overcast
3:54 AM 25.0 °F 12.2 °F 21.0 °F 85% 29.87 in 8.0 mi NNW 16.1 mph - N/A   Overcast
4:54 AM 24.1 °F 10.6 °F 19.0 °F 81% 29.87 in 7.0 mi NNW 17.3 mph - N/A   Overcast
5:54 AM 21.9 °F 7.3 °F 17.1 °F 82% 29.91 in 8.0 mi NNW 18.4 mph 25.3 mph N/A   Overcast
6:03 AM 21.2 °F 5.6 °F 15.8 °F 80% 29.86 in 9.0 mi North 20.7 mph - N/A   Overcast
6:27 AM 19.4 °F 3.6 °F 17.6 °F 93% 29.87 in 2.0 mi NNW 19.6 mph - 0.00 in Snow Light Snow
6:32 AM 19.4 °F 2.8 °F 15.8 °F 86% 29.87 in 1.5 mi North 21.9 mph - 0.00 in Snow Light Snow
6:46 AM 19.4 °F 3.2 °F 15.8 °F 86% 29.88 in 3.0 mi North 20.7 mph - 0.00 in Snow Light Snow
6:54 AM 19.0 °F 2.0 °F 15.1 °F 85% 29.93 in 5.0 mi North 23.0 mph - 0.00 in Snow Light Snow
7:46 AM 15.8 °F -0.6 °F 12.2 °F 86% 29.94 in 1.5 mi NNW 18.4 mph - 0.00 in Snow Light Snow
7:54 AM 16.0 °F 1.1 °F 12.9 °F 88% 29.98 in 1.5 mi NNW 15.0 mph - 0.00 in Snow Light Snow
8:02 AM 15.8 °F -1.1 °F 12.2 °F 86% 29.93 in 1.0 mi NNW 19.6 mph - 0.00 in Snow Light Snow
8:19 AM 15.8 °F -0.2 °F 12.2 °F 86% 29.95 in 0.8 mi NNW 17.3 mph - 0.00 in Snow Light Snow
8:56 AM 14.0 °F -3.0 °F 10.4 °F 86% 29.98 in 0.8 mi NNW 18.4 mph - 0.00 in Snow Light Snow
9:12 AM 14.0 °F -1.4 °F 10.4 °F 86% 29.98 in 1.0 mi NW 15.0 mph - 0.00 in Snow Light Snow
9:29 AM 12.2 °F -6.3 °F 10.4 °F 92% 30.00 in 0.8 mi NNW 20.7 mph 26.5 mph 0.00 in Snow Light Snow
9:54 AM 12.9 °F -3.4 °F 9.0 °F 84% 30.07 in 0.8 mi NNW 16.1 mph - N/A Snow Light Snow
10:33 AM 12.2 °F -4.3 °F 8.6 °F 85% 30.05 in 2.5 mi NW 16.1 mph - 0.00 in Snow Light Snow
10:41 AM 12.2 °F -4.8 °F 8.6 °F 85% 30.05 in 1.0 mi NW 17.3 mph 23.0 mph 0.00 in Snow Light Snow
10:54 AM 12.0 °F -5.1 °F 8.1 °F 84% 30.12 in 2.0 mi NW 17.3 mph - 0.00 in Snow Light Snow
11:08 AM 12.2 °F -6.3 °F 5.0 °F 73% 30.06 in 4.0 mi NW 20.7 mph - 0.00 in Snow Light Snow
11:19 AM 12.2 °F -6.3 °F 5.0 °F 73% 30.08 in 8.0 mi NW 20.7 mph 24.2 mph 0.00 in Snow Light Snow
11:35 AM 12.2 °F -6.3 °F 5.0 °F 73% 30.08 in 8.0 mi NNW 20.7 mph 29.9 mph 0.00 in Snow Light Snow
1:54 PM 12.9 °F -5.3 °F 1.9 °F 62% 30.13 in 10.0 mi NW 20.7 mph - N/A   Mostly Cloudy
2:54 PM 15.1 °F -1.1 °F 3.0 °F 59% 30.15 in 10.0 mi NW 17.3 mph - N/A   Scattered Clouds
3:54 PM 16.0 °F 1.7 °F 3.9 °F 59% 30.16 in 10.0 mi NW 13.8 mph - N/A   Partly Cloudy
4:54 PM 16.0 °F 3.6 °F 1.9 °F 54% 30.17 in 10.0 mi NW 10.4 mph - N/A   Clear
5:54 PM 12.9 °F 3.8 °F 1.0 °F 59% 30.19 in 10.0 mi West 5.8 mph - N/A   Clear
6:54 PM 10.9 °F 4.7 °F -0.0 °F 61% 30.22 in 10.0 mi West 3.5 mph - N/A   Clear
7:54 PM 10.0 °F 1.8 °F 1.0 °F 67% 30.24 in 10.0 mi West 4.6 mph - N/A   Clear
8:54 PM 6.1 °F -0.9 °F -0.9 °F 73% 30.24 in 10.0 mi NW 3.5 mph - N/A   Clear
9:54 PM 9.0 °F 2.4 °F 1.0 °F 70% 30.25 in 10.0 mi West 3.5 mph - N/A   Clear
10:54 PM 6.1 °F - 1.0 °F 80% 30.27 in 10.0 mi Calm Calm - N/A   Clear
11:54 PM 6.1 °F - -0.0 °F 76% 30.28 in 10.0 mi Calm Calm - N/A   Clear